Last reported at 2014-Mar-27 18:32 UTC.
Time now 2014-Apr-24 01:49 UTC

Location: N 32°01' E 034°53'.
View on Google Maps.

See reports from other nearby stations

Tides Stations Pressure Air Temp Water Temp Dewpoint Dewpoint depression Visibility Wind Speed Wind Dir Waves Ship positions

  
sailing weather and tide predictions

Ben Gurion weather

date/time (UTC)wind fromknots sea level pressurealtimeterstation pressurevisibilityair tempwater tempwave heightnotes
2014-Apr-24 00:20 17.0
2014-Apr-23 23:50 17.0
2014-Apr-23 23:20 17.0
2014-Apr-23 22:50 17.0
2014-Apr-23 22:20 17.0
2014-Apr-23 21:50 18.0
2014-Apr-23 21:20 19.0
2014-Apr-23 20:50 19.0
2014-Apr-23 20:20 19.0
2014-Apr-23 19:50 19.0
2014-Apr-23 19:20 21.0
2014-Apr-23 18:50 21.0
2014-Apr-23 18:20 21.0
2014-Apr-23 17:50 22.0
2014-Apr-23 17:20 340 5 22.0
2014-Apr-23 16:50 340 5 22.0
2014-Apr-23 16:20 340 7 23.0
2014-Apr-23 15:50 340 6 24.0
2014-Apr-23 15:20 340 8 24.0
2014-Apr-23 14:50 330 9 25.0
2014-Apr-23 14:20 330 11 25.0
2014-Apr-23 13:50 310 10 26.0
2014-Apr-23 13:20 330 11 26.0
2014-Apr-23 12:50 320 10 28.0
2014-Apr-23 12:20 300 11 28.0
2014-Apr-23 11:50 300 10 27.0
2014-Apr-23 11:20 300 10 27.0
2014-Apr-23 10:50 300 9 27.0
2014-Apr-23 10:20 300 8 26.0
2014-Apr-23 09:50 310 11 25.0
2014-Apr-23 09:20 300 10 25.0
2014-Apr-23 08:50 300 10 26.0
2014-Apr-23 08:20 300 9 26.0
2014-Apr-23 07:50 320 6 26.0
2014-Apr-23 07:20 020 5 25.0
2014-Apr-23 06:50 330 6 24.0
2014-Apr-23 06:20 23.0
2014-Apr-23 05:50 21.0
2014-Apr-23 05:20 21.0
2014-Apr-23 04:50 20.0
2014-Apr-23 04:20 18.0
2014-Apr-23 03:50 16.0
2014-Apr-23 03:20 14.0
2014-Apr-23 02:50 14.0
2014-Apr-23 02:20 15.0
2014-Apr-23 01:50 090 4 15.0
2014-Apr-23 01:20 15.0
2014-Apr-23 00:50 15.0
2014-Apr-23 00:20 15.0
2014-Apr-22 23:50 16.0
2014-Apr-22 23:20 16.0
2014-Apr-22 22:50 17.0
2014-Apr-22 22:20 080 4 17.0
2014-Apr-22 21:50 18.0
2014-Apr-22 21:20 060 4 18.0
2014-Apr-22 20:50 040 4 18.0
2014-Apr-22 20:20 18.0
2014-Apr-22 19:50 040 5 19.0
2014-Apr-22 19:20 010 4 19.0
2014-Apr-22 18:50 350 6 19.0
2014-Apr-22 18:20 350 5 19.0
2014-Apr-22 17:50 350 4 19.0
2014-Apr-22 17:20 350 5 20.0
2014-Apr-22 16:50 330 5 20.0
2014-Apr-22 16:20 330 7 20.0
2014-Apr-22 15:50 310 9 21.0
2014-Apr-22 15:20 300 9 21.0
2014-Apr-22 14:50 300 9 22.0
2014-Apr-22 14:20 310 8 23.0
2014-Apr-22 13:50 300 9 24.0
2014-Apr-22 13:20 320 6 24.0
2014-Apr-22 12:50 310 7 24.0
2014-Apr-22 12:20 310 8 23.0
2014-Apr-22 11:50 300 10 23.0
2014-Apr-22 11:20 290 12 23.0
2014-Apr-22 10:50 300 11 23.0
2014-Apr-22 10:20 300 10 23.0
2014-Apr-22 09:50 300 13 5.423.0
2014-Apr-22 09:20 300 13 5.423.0
2014-Apr-22 08:50 25.0
2014-Apr-22 08:20 24.0
2014-Apr-22 07:50 23.0
2014-Apr-22 07:20 5.422.0
2014-Apr-22 06:50 5.421.0
2014-Apr-22 06:20 5.421.0
2014-Apr-22 05:50 170 5 5.420.0
2014-Apr-22 05:20 170 5 5.419.0
2014-Apr-22 04:50 130 5 5.418.0
2014-Apr-22 04:20 5.417.0
2014-Apr-22 03:50 5.416.0
2014-Apr-22 03:20 5.416.0
2014-Apr-22 02:50 5.416.0
2014-Apr-22 02:20 5.416.0
2014-Apr-22 01:50 5.415.0
2014-Apr-22 01:20 5.415.0